sat.trackr.live / text

‹ back to catalog

FLOCK 4G-5

NORAD 62663 · 2025-009BG

PAYLOAD ACTIVE UNKNOWN

§ Identity

Operator
Country
US
Launch date
2025-01-14
Launch site
AFWTR
Launch vehicle
Mass (kg)
RCS (m²)

Purposes: earth_obs

External: N2YO · Heavens-Above · Gunter

§ Orbital elements

Epoch: 2026-05-25T04:51:01.677600Z

Period
94.12 min
Inclination
97.4026°
Eccentricity
0.0004054
Mean motion
15.30000294 rev/d
Perigee alt
473.0 km
Apogee alt
478.6 km
Semi-major
6,853.9 km
B*
2.8481e-4
RAAN
227.6633°
Arg perigee
52.8227°
Mean anomaly
307.3383°
Rev number
7,542

§ Raw data

FLOCK 4G-51 62663U 25009BG  26145.20210275  .00008197  00000+0  28481-3 0  99962 62663  97.4026 227.6633 0004054  52.8227 307.3383 15.30000294 75420

JSON: /api/v1/satellites/62663 · /tle

For live sub-satellite position, see the globe view (requires WebGL).

§ Visibility from observer

Set your observer location to see the next 7 days of passes ≥ 10°. The values pass through the URL so the page stays shareable.

No JS? Fill the form by hand. The geolocation button needs JavaScript.